Regional Weather Roundup
Issued by NWS

Home | Current Version | Previous Version | Text Only | Print | Product List | Glossary On
Versions: 1 2 3 4 5 6 7 8 9 10 11 12 13 14 15 16 17 18 19 20 21 22 23 24 25 26 27 28 29 30 31 32 33 34 35 36 37 38 39 40 41 42 43 44 45 46 47 48 49 50
000
ASUS44 KLUB 220710
RWRTX
WEST TEXAS WEATHER ROUNDUP
NATIONAL WEATHER SERVICE LUBBOCK TX
100 AM CST MON DEC 22 2014

NOTE: "FAIR" INDICATES FEW OR NO CLOUDS BELOW 12,000 FEET WITH NO
SIGNIFICANT WEATHER AND/OR OBSTRUCTIONS TO VISIBILITY.

TXZ004-006>008-010-012-014-016-OKZ002-220800-
TEXAS PANHANDLE/OKLAHOMA PANHANDLE

CITY           SKY/WX    TMP DP  RH WIND       PRES   REMARKS
AMARILLO       CLEAR     47  28  47 W17       29.60S
BORGER         PTCLDY    44  25  47 W10       29.58R
CANADIAN       CLOUDY    44  43  96 SW3       29.54F
DALHART        PTCLDY    43  27  53 NW13      29.61F
DUMAS          PTCLDY    38  26  60 W12       29.61S WCI  31
GUYMON         PTCLDY    41  29  62 NW12      29.57R
HEREFORD       CLEAR     45  31  57 NW8       29.63S
PAMPA          PTCLDY    38  28  66 W13       29.57S WCI  31
PERRYTON       MOCLDY    32  30  92 W8        29.55S WCI  25
$$

TXZ026-029-035-045-048-220800-
SOUTHERN PANHANDLE/SOUTH PLAINS/ROLLING PLAINS

CITY           SKY/WX    TMP DP  RH WIND       PRES   REMARKS
CHILDRESS      PTCLDY    41  34  76 NW7       29.53F
SEMINOLE       MOCLDY    52  28  39 W12       29.72F
LUBBOCK        MOCLDY    54  30  40 W21G30    29.61S
PLAINVIEW      CLEAR     49  33  54 W15       29.60F
SNYDER         PTCLDY    56  29  36 SW16      29.63F
$$

TXZ052-054-060>062-072-078-127-140-154-169-220800-
PERMIAN BASIN/CONCHO VALLEY/BIG COUNTRY/EDWARDS PLATEAU

CITY           SKY/WX    TMP DP  RH WIND       PRES   REMARKS
ABILENE        FAIR      49  43  80 SW18G32   29.64F
BIG SPRING     CLOUDY    55  27  33 SW15      29.71F
BROWNWOOD      PTCLDY    46  45  93 S9        29.72F
JUNCTION       CLOUDY    54  49  83 SW5       29.79F
MIDLAND        CLOUDY    56  28  34 W13       29.72S
ODESSA         CLOUDY    54  26  34 W10       29.74S
SAN ANGELO     PTCLDY    50  46  86 SW9       29.73F
SONORA         CLOUDY    50  50 100 SW7       29.83F
SWEETWATER     PTCLDY    51  40  65 SW22      29.67F
WINK           CLOUDY    57  25  29 W8        29.74S
$$

TXZ055-058-074-075-080-082-220800-
FAR WEST/SOUTHWEST MOUNTAINS/TRANS PECOS

CITY           SKY/WX    TMP DP  RH WIND       PRES   REMARKS
ALPINE         MOCLDY    57  24  27 W13G31    29.93F
DRYDEN           N/A     47  46  97 NE6       29.79R
EL PASO        CLOUDY    56  28  34 W12       29.90F
FORT STOCKTON  MOCLDY    56  25  30 SW14      29.78F
MARFA          CLOUDY    52  23  32 W5        29.96S
PECOS          CLOUDY    61  28  28 W23G29    29.76F
PRESIDIO       FAIR      53  28  38 E3        29.90S
$$

TXZ014-016-019-021>030-083-220800
TEXAS TECH WEST TEXAS MESONET/TEXAS PANHANDLE/NORTHERN SOUTH PLAINS

CITY           SKY/WX    TMP DP  RH WIND       PRES   REMARKS
ABERNATHY 5ENE   N/A     51  30  44 W18       29.62F
AMARILLO 9NNE    N/A     41  27  57 W5        29.61S
AMARILLO 7SSE    N/A     49  29  46 W15       29.61S
AMHERST 1NE      N/A     50  30  45 W16       29.64S
BOOTLEG 11WNW    N/A     47  27  45 W16       29.66S
CANADIAN 6E      N/A     43  42  95 S5        29.53F
CAPROCK CYN SP   N/A     48  30  49 W20       29.55F
CHILDRESS 2NNE   N/A     42  33  70 W8        29.52S
CLARENDON 2WSW   N/A     39  31  73 NW12      29.54F WCI  32
CLAUDE 12SW      N/A     45  28  52 W16       29.58S
DIMMITT 2NE      N/A     44  28  53 W13       29.63S
FLOYDADA 2NNE    N/A     47  30  51 W16       29.58F
FRIONA 2NE       N/A     46  28  50 W15       29.64F
GOODLETT 3W      N/A     42  35  77 SW7       29.51F
HART 3N          N/A     45  31  57 W17       29.63R
HEREFORD 2NW     N/A     44  27  50 W10       29.62F
MCLEAN 1E        N/A     36  35  99 NW7       29.53F WCI  30
MEMPHIS 1NE      N/A     38  37  94 NW6       29.54S WCI  34
MULESHOE 2SSW    N/A     50  30  45 W16       29.66R
OLTON 6S         N/A     49  29  47 W16       29.63S
PALO DURO SP     N/A     46  28  49 NW17      29.60S
PAMPA 2E         N/A     41  30  65 W9        29.55F
PLAINVIEW 1S     N/A     48  32  54 W15       29.61S
SILVERTON 7ESE   N/A     38  29  71 W10       29.58F WCI  31
TULIA 2ENE       N/A     44  31  59 W16       29.60F
TURKEY 2WSW      N/A     49  31  48 W15       29.54F
UMBARGER 3NNE    N/A     41  27  57 NW13      29.62S
$$

TXZ033>036-039>041-045>048-220800
TEXAS TECH WEST TEXAS MESONET/SOUTH PLAINS

CITY           SKY/WX    TMP DP  RH WIND       PRES   REMARKS
AIKEN 3WSW       N/A     48  31  52 W18       29.61F
ANDREWS 2NE      N/A     54  25  32 W15       29.72F
ANTON 6SSW       N/A     53  31  44 W21       29.63S
BROWNFIELD 2S    N/A     55  28  35 W26       29.65S
DENVR CTY 7WNW   N/A     49  26  41 W14       29.72R
GAIL 2ESE        N/A     53  29  39 SW12      29.64S
LAMESA 2SE       N/A     52  29  41 W15       29.67F
LEVELLAND 4S     N/A     54  29  37 W22       29.64S
LUBBOCK 3WNW     N/A     55  30  38 W14       29.62S
MORTON 1ENE      N/A     52  30  42 W24       29.67S
ODONNELL 1N      N/A     49  27  42 SW12      29.64F
PLAINS 3N        N/A     52  28  39 W20       29.70S
RALLS 1SE        N/A     51  30  44 W12       29.60S
REESE CENTER     N/A     54  29  39 W23       29.61F
SEAGRAVES 1SW    N/A     50  29  44 W12       29.70R
SEMINOLE 2NNE    N/A     52  27  39 W12       29.70F
SLATON 2NE       N/A     55  28  35 W18       29.61S
SNYDER 3E        N/A     55  29  37 SW13      29.63F
SUNDOWN 8SW      N/A     54  29  38 W24       29.66F
TAHOKA 3NNE      N/A     56  29  36 W21       29.62S
WOLFFORTH 6SSW   N/A     56  30  38 W24       29.63F
$$

TXZ031-032-036>038-042>044-220800-
TEXAS TECH WEST TEXAS MESONET/ROLLING PLAINS

CITY           SKY/WX    TMP DP  RH WIND       PRES   REMARKS
ASPERMONT 3NE    N/A     56  30  36 SW14      29.57F
FLUVANNA 3WNW    N/A     50  28  43 SW12      29.63R
GRAHAM 5SSW      N/A     55  29  36 W16       29.61F
GUTHRIE 10WSW    N/A     49  29  46 S7        29.55F
HASKELL 1NW      N/A     50  40  69 S12       29.57F
JAYTON 1SSE      N/A     50  30  46 SW8       29.58F
KNOX CITY 3NW    N/A     47  37  67 S10       29.55F
LK A HENRY 1NW   N/A     54  29  39 SW12      29.60S
NORTHFIELD 1S    N/A     43  31  63 SW8       29.54S
ODELL 4ENE       N/A     46  43  87 SE12      29.53F
POST 1NE         N/A     57  30  35 W16       29.60S
SEYMOUR 3NW      N/A     50  42  74 S13       29.54F
SPUR 1W          N/A     47  29  48 W7        29.56F
WHITE RVR 6NE    N/A     55  30  38 W24       29.57S
$$

TXZ052-054-060>062-072-078-127-140-154-169-220800-
TEXAS TECH WEST TEXAS MESONET/PERMIAN BASIN/
CONCHO VALLEY/BIG COUNTRY/EDWARDS PLATEAU

CITY           SKY/WX    TMP DP  RH WIND       PRES   REMARKS
COYANOSA 2N      N/A     62  25  25 W14       29.75F
JUNCTION 1SSW    N/A     54  49  86 S10       29.80F
MERTZON 3NNE     N/A     48  46  90 S16       29.74F
SAN ANGELO 7NW   N/A     49  45  85 S7        29.73F
STRLNG CT 4WSW   N/A     49  41  74 SW7       29.72S
ST LAWRNCE 5SW   N/A     47  35  63 SW8       29.73S
SWEETWATR 11SW   N/A     49  39  66 SW14      29.67F
WALL 1E          N/A     50  46  83 S17       29.72F
$$

TXZ055-058-074-075-080-082-220800-
TEXAS TECH WEST TEXAS MESONET/FAR WEST/SOUTHWEST MOUNTAINS/TRANS PECOS

CITY           SKY/WX    TMP DP  RH WIND       PRES   REMARKS
PRSMN GAP BBNP   N/A     57  27  31 NE3       29.85R
$$



USA.gov is the U.S. government's official web portal to all federal, state and local government web resources and services.